IUS R/B(1), 20843

Orbit data source: Space-Track

IUS R/B(1), 20843 is space debris in HEO originally from a launch on Sat, 06 Oct 1990 UTC launched from the Air Force Eastern Test Range (AFETR). Debris objects in space refer to the collection of defunct objects orbiting the Earth. Examples of debris include non-operational satellites, rocket bodies, and fragments generated from explosions, collisions, or faulty payload assembly.

Loading next visibility...
Identifier
20843, 1990-090C
Orbit
HEO
Country
Flag of USUS
Related business
Manufacturer
UTC CSD
Mission
Spacecraft
Bus & Motor
ORBUS 21, Unknown motor
Mass
1,056 kg wet, 1,056 kg dry
Launch date (UTC)
1990-10-06 (36 years ago)
Launch vehicle
Unknown
Launch site
Air Force Eastern Test Range (AFETR)
Object type
Payload
Rocket body
Debris
Shape & HBR
Cyl, Unknown HBR
Radar Cross Section
7.708 m², Large (>1 m²)

Expand to show TLE details & history
Last TLE update: 2 days ago

TLE from 2 days ago
0 IUS R/B(1)
1 20843U 90090C   26126.10571709  .00002494  00000-0  10637-2 0  9990
2 20843  28.2373  79.2014 6684431 134.0125 305.5340  3.03876482364212
Epoch: 2026-05-06T02:32Z
TLE epoch observation values (Epoch: 2026-05-06T02:32:13.956Z)
Latitude
0.00003°
Longitude
177.13204°
Altitude
14,416.147 km
Speed
4.306 km/s
True Right ascension
05h 16m 38s
True Declination
0° 00' 00"
Sunlit
Object was in daylight at epoch
Visualization orbit readout
Latitude
Unknown
Longitude
Unknown
Altitude
Unknown
Speed
Unknown
Apparent Right ascension
Unknown
Apparent Declination
Unknown
Sunlit
N/A
Visualization observer readout
Local Sidereal Time
23:28:03
Azimuth
Unknown
Elevation
Unknown
Doppler factor
Unknown
Orbital elements
Apogee altitude
27,220.755 km
Perigee altitude
298.713 km
Semi-major axis
20,137.871 km
Eccentricity
0.66844
Inclination
28.2373°
RAAN
79.2014°
Arg. of periapsis
134.0125°
True anomaly
226.06011°
Mean anomaly
305.534°
Eccentric anomaly
267.27824°
Mean motion
0.75949 °/min
Orbital period
474 mins
BSTAR
0.0010637
Loading maneuver chart data...
Computing Atmospheric mass density...
Loading historical data...
Loading historical data...
Loading historical data...
Loading historical data...
Loading historical data...
Loading historical data...
Loading historical data...
Other satellites on launch #90 in the year 1990 (1990-10-06 UTC)

Documentation

Showing up to 5 results
|